Zurück zum Katalog

THOR ABLESTAR DEB

AktivLEO
NORAD 48810·DEBRIS·🇺🇸 United States

Gestartet Jun 29, 1961 von Cape Canaveral Space Force Station

Loading…

Nächste Überflüge (nächste 24 Stunden)

TLE

AktuellSource: Space-Track

Epoche: Sep 14, 2026, 05:43 UTC

1 48810U 61015MN  26257.23882450 -.00000022  00000-0  41148-4 0  9995
2 48810  66.8541  62.1485 0127350  46.3135 126.6155 13.89385957649721

Verfolge THOR ABLESTAR DEB in Echtzeit mit AllMySat

Download on the App Store